{"data":{"norad_id":64165,"intl_designator":"2025-112V","name":"STARLINK-33793","alt_names":[],"object_type":"PAYLOAD","status":"ACTIVE","operator":null,"country":"US","launch_date":"2025-05-27","launch_site_code":"AFWTR","launch_vehicle":null,"mission":null,"orbit_class":"UNKNOWN","rcs_meters":null,"size_class":null,"mass_kg":null,"dimensions":null,"purposes":["comms"],"wikipedia_slug":null,"has_3d_model":false,"image_url":null,"decayed_at":null,"tle_current":{"epoch":"2026-05-25T03:38:00.507264Z","epoch_age_seconds":65952,"freshness":"FRESH","line1":"1 64165U 25112V   26145.15139476  .00010361  00000+0  72100-3 0  9990","line2":"2 64165  97.4488 196.5286 0001652 122.0197 238.1190 15.05654249 54810","mean_motion":15.05654249,"eccentricity":0.0001652,"inclination_deg":97.4488,"raan_deg":196.5286,"arg_perigee_deg":122.0197,"mean_anomaly_deg":238.119,"bstar":0.000721,"rev_number":5481,"period_min":95.639487017447,"perigee_km":548.35367536158,"apogee_km":550.64256600545,"semimajor_km":6927.6351206835,"source":"CELESTRAK","updated_at":"2026-05-25T13:38:20.307067Z"}}}